Location: El Corozo
(10.5833°N, 66.9667°W)
Time: 00:18:47
(UTC+00:00)

Cosmos 1943 - Pass Details

Date: 23 May 2024
Orbit: 833 x 848 km, 71.0° (Epoch: 15 June)

Event Time Altitude Azimuth Distance (km) Brightness Sun altitude
Exits shadow 00:26:49 28° 54° (NE) 1,545 4.3 -23.7°
Drops below altitude 10° 00:29:41 10° 35° (NE) 2,461 5.5 -24.4°
Sets 00:32:14 0° 28° (NNE) 3,394 6.4 -24.9°
